Weather History for Monticello, AR

Change the Weather History Date:

Saturday, September 1, 2012

  Actual Average Record
Temperature  
Mean Temperature 84 °F -  
Max Temperature 93 °F 90 °F 102 °F (2000)
Min Temperature 78 °F 66 °F 56 °F (1968)
Cooling Degree Days 20    
Growing Degree Days 34 (Base 50)    
Moisture  
Dew Point 75 °F    
Average Humidity 76    
Maximum Humidity 90    
Minimum Humidity 55    
Precipitation  
Precipitation 0.00 in - - ()
Sea Level Pressure  
Sea Level Pressure 30.00 in    
Wind  
Wind Speed 11 mph (SSW)    
Max Wind Speed 16 mph    
Max Gust Speed 23 mph    
Visibility 10 miles    
Events      
Averages and records for this station are not official NWS values.
T = Trace of Precipitation, MM = Missing Value Source: NWS Daily Summary

Daily Weather History Graph

Daily Weather History Graph

Search for Another Location

Airport:

Trip Planner

Search our weather history database for the weather conditions in past years. The results will help you decide how hot, cold, wet, or windy it might be!

Date:

Astronomy

Sep. 01, 2012 Rise Set
Actual Time 6:41 AM CDT 7:31 PM CDT
Civil Twilight 6:15 AM CDT 7:57 PM CDT
Nautical Twilight 5:45 AM CDT 8:27 PM CDT
Astronomical Twilight 5:15 AM CDT 8:57 PM CDT
Moon 7:56 PM CDT (9/1) 7:42 AM CDT (9/1)
Length of Visible Light 13h 41m
Length of Day
12h 50m
Full, 99% of the Moon is Illuminated
Sep 1
Full
Sep 8
Last Quarter
Sep 15
New
Sep 22
First Quarter
Sep 29
Full

Hourly Weather History & Observations

Time (CDT) Temp. Heat Index Dew Point Humidity Pressure Visibility Wind Dir Wind Speed Gust Speed Precip Events Conditions
1:05 AM 80.6 °F 86.2 °F 75.2 °F 84% 29.99 in 10.0 mi SSW 12.7 mph 19.6 mph N/A   Mostly Cloudy
1:21 AM 80.6 °F 86.2 °F 75.2 °F 84% 29.99 in 10.0 mi SSW 16.1 mph 19.6 mph N/A   Scattered Clouds
1:53 AM 80.1 °F 85.4 °F 75.9 °F 87% 29.98 in 10.0 mi SSW 10.4 mph - N/A   Partly Cloudy
2:15 AM 80.6 °F 86.2 °F 75.2 °F 84% 29.99 in 10.0 mi SSW 9.2 mph 18.4 mph N/A   Mostly Cloudy
2:53 AM 80.1 °F 85.4 °F 75.9 °F 87% 29.98 in 10.0 mi SSW 9.2 mph 17.3 mph N/A   Mostly Cloudy
3:07 AM 78.8 °F - 75.2 °F 89% 29.99 in 10.0 mi SSW 8.1 mph - N/A   Mostly Cloudy
3:53 AM 79.0 °F - 75.9 °F 90% 30.00 in 10.0 mi SSW 9.2 mph - N/A   Mostly Cloudy
4:16 AM 78.8 °F - 75.2 °F 89% 30.01 in 10.0 mi SSW 10.4 mph - N/A   Overcast
4:53 AM 80.1 °F 85.1 °F 75.0 °F 85% 30.01 in 10.0 mi SSW 8.1 mph - N/A   Overcast
5:53 AM 79.0 °F - 75.0 °F 88% 30.01 in 10.0 mi SSW 10.4 mph 17.3 mph N/A   Overcast
6:53 AM 79.0 °F - 75.0 °F 88% 30.03 in 10.0 mi SSW 9.2 mph 17.3 mph N/A   Overcast
7:53 AM 80.1 °F 85.1 °F 75.0 °F 85% 30.06 in 10.0 mi SSW 8.1 mph 18.4 mph N/A   Overcast
8:53 AM 81.0 °F 86.7 °F 75.0 °F 82% 30.07 in 10.0 mi SW 10.4 mph - N/A   Overcast
9:35 AM 82.4 °F 89.5 °F 75.2 °F 79% 30.08 in 10.0 mi SW 9.2 mph - N/A   Mostly Cloudy
9:46 AM 82.4 °F 89.5 °F 75.2 °F 79% 30.08 in 10.0 mi SW 12.7 mph 20.7 mph N/A   Overcast
9:53 AM 82.9 °F 90.2 °F 75.0 °F 77% 30.07 in 10.0 mi SW 11.5 mph 18.4 mph N/A   Overcast
10:53 AM 84.0 °F 91.9 °F 75.0 °F 74% 30.06 in 10.0 mi SW 12.7 mph - N/A   Mostly Cloudy
11:53 AM 88.0 °F 97.5 °F 75.0 °F 65% 30.05 in 10.0 mi SW 11.5 mph 23.0 mph N/A   Mostly Cloudy
12:53 PM 90.0 °F 100.2 °F 75.0 °F 61% 30.03 in 10.0 mi SW 11.5 mph 18.4 mph N/A   Mostly Cloudy
1:53 PM 91.0 °F 101.6 °F 75.0 °F 59% 30.00 in 10.0 mi SW 9.2 mph 17.3 mph N/A   Scattered Clouds
2:53 PM 91.0 °F 100.4 °F 73.9 °F 57% 29.97 in 10.0 mi SW 13.8 mph 23.0 mph N/A   Scattered Clouds
3:53 PM 91.0 °F 100.4 °F 73.9 °F 57% 29.95 in 10.0 mi SW 11.5 mph 19.6 mph N/A   Scattered Clouds
4:53 PM 91.9 °F 101.3 °F 73.9 °F 55% 29.94 in 10.0 mi SSW 13.8 mph 21.9 mph N/A   Mostly Cloudy
5:53 PM 91.0 °F 100.4 °F 73.9 °F 57% 29.94 in 10.0 mi SW 11.5 mph 17.3 mph N/A   Clear
6:53 PM 89.1 °F 99.1 °F 75.0 °F 63% 29.93 in 10.0 mi SSW 10.4 mph 18.4 mph N/A   Clear
7:53 PM 87.1 °F 96.3 °F 75.0 °F 67% 29.96 in 10.0 mi SSW 8.1 mph - N/A   Clear
8:53 PM 84.0 °F 92.6 °F 75.9 °F 76% 29.96 in 10.0 mi SSW 8.1 mph - N/A   Clear
9:53 PM 82.9 °F 89.4 °F 73.9 °F 74% 29.97 in 10.0 mi SW 8.1 mph - N/A   Clear
10:53 PM 82.0 °F 88.6 °F 75.0 °F 79% 29.99 in 10.0 mi SW 10.4 mph - N/A   Clear
11:53 PM 81.0 °F 86.7 °F 75.0 °F 82% 29.98 in 10.0 mi West 6.9 mph - N/A   Clear